{"data":{"norad_id":63900,"intl_designator":"2025-095L","name":"STARLINK-34118","alt_names":[],"object_type":"PAYLOAD","status":"ACTIVE","operator":null,"country":"US","launch_date":"2025-05-10","launch_site_code":"AFETR","launch_vehicle":null,"mission":null,"orbit_class":"UNKNOWN","rcs_meters":null,"size_class":null,"mass_kg":null,"dimensions":null,"purposes":["comms"],"wikipedia_slug":null,"has_3d_model":false,"image_url":null,"decayed_at":null,"tle_current":{"epoch":"2026-09-20T09:33:27.952416Z","epoch_age_seconds":155920,"freshness":"FRESH","line1":"1 63900U 25095L   26263.39824019  .00010229  00000+0  38062-3 0  9999","line2":"2 63900  42.9995 156.8035 0001208 268.5853  91.4860 15.27588412 77560","mean_motion":15.27588412,"eccentricity":0.0001208,"inclination_deg":42.9995,"raan_deg":156.8035,"arg_perigee_deg":268.5853,"mean_anomaly_deg":91.486,"bstar":0.00038062,"rev_number":7756,"period_min":94.266229613164,"perigee_km":482.1950793634,"apogee_km":483.85273583868,"semimajor_km":6861.160907601,"source":"CELESTRAK","updated_at":"2026-09-21T09:00:35.144971Z"}}}